WA0GMH-1 Weather Reports


Display with metric or nautical units.
time (UTC)temp
F
wind
direction
speed
MPH
gust
MPH
rain 1hr
in
rain 24hr
in
rain mn
in
humidity
%
barometer
mb
20260507033742 48 270 0.0 0.0 0.00 0.00 0.00 73 1013.7
20260507033100 48 270 0.0 0.0 0.00 0.00 0.00 73 1013.8
20260507032418 49 270 0.0 0.0 0.00 0.00 0.00 73 1013.8
20260507031736 49 270 0.0 0.0 0.00 0.00 0.00 72 1014.1
20260507031053 49 270 0.0 0.0 0.00 0.00 0.00 72 1014.2
20260507030411 50 270 0.0 0.0 0.00 0.00 0.00 73 1014.2
20260507025729 50 270 0.0 0.0 0.00 0.00 0.00 71 1014.1
20260507025047 50 270 0.0 0.0 0.00 0.00 0.00 71 1014.4
20260507024404 51 270 0.0 0.0 0.00 0.00 0.00 70 1014.1
20260507023722 51 270 0.0 0.0 0.00 0.00 0.00 70 1014.1
20260507023040 51 270 0.0 0.0 0.00 0.00 0.00 70 1014.2
20260507022358 52 270 0.0 0.0 0.00 0.00 0.00 70 1014.1
20260507021715 52 270 0.0 0.0 0.00 0.00 0.00 68 1014.2
20260507021033 53 270 0.0 0.0 0.00 0.00 0.00 68 1014.2
20260507020351 53 270 0.0 0.0 0.00 0.00 0.00 67 1014.3
20260507015709 54 270 0.0 0.0 0.00 0.00 0.00 67 1014.4
20260507015026 55 270 0.0 0.0 0.00 0.00 0.00 65 1014.3
20260507014344 55 270 0.0 0.0 0.00 0.00 0.00 62 1014.4
20260507013702 56 270 0.0 0.0 0.00 0.00 0.00 62 1014.4
20260507013020 56 270 0.0 0.0 0.00 0.00 0.00 61 1014.4
20260507012337 57 270 0.0 0.0 0.00 0.00 0.00 61 1014.3
20260507011655 57 270 0.0 0.0 0.00 0.00 0.00 61 1014.3
20260507011013 58 270 0.0 0.0 0.00 0.00 0.00 60 1014.5
20260507010331 58 270 0.0 0.0 0.00 0.00 0.00 60 1014.4
20260507005648 58 270 0.0 0.0 0.00 0.00 0.00 60 1014.5
20260507005006 59 270 0.0 0.0 0.00 0.00 0.00 59 1014.6
20260507004324 59 270 0.0 0.0 0.00 0.00 0.00 59 1014.8
20260507003642 60 270 0.0 0.0 0.00 0.00 0.00 59 1014.8
20260507002959 60 270 0.0 0.0 0.00 0.00 0.00 59 1014.7
20260507002317 60 270 0.0 0.0 0.00 0.00 0.00 59 1014.7
20260507001635 60 270 0.0 0.0 0.00 0.00 0.00 59 1014.7
20260507000953 61 270 0.0 0.0 0.00 0.00 0.00 59 1014.7
20260507000310 61 270 0.0 0.0 0.00 0.00 0.00 59 1014.7
20260506235628 61 270 0.0 0.0 0.00 0.00 0.00 57 1014.8
20260506234946 62 270 0.0 0.0 0.00 0.00 0.00 57 1014.9
20260506234304 62 270 0.0 0.0 0.00 0.00 0.00 57 1015.1
20260506233621 63 270 0.0 0.0 0.00 0.00 0.00 57 1014.9
20260506232940 63 270 0.0 0.0 0.00 0.00 0.00 57 1014.9
20260506232257 63 270 0.0 0.0 0.00 0.00 0.00 57 1014.9
20260506231615 64 270 0.0 0.0 0.00 0.00 0.00 55 1015.2
20260506230932 65 270 0.0 0.0 0.00 0.00 0.00 57 1015.2
20260506230251 64 270 0.0 0.0 0.00 0.00 0.00 60 1014.9
20260506225608 63 270 0.0 0.0 0.00 0.00 0.00 59 1015.0
20260506224926 63 270 0.0 0.0 0.00 0.00 0.00 58 1015.0
20260506224243 64 270 0.0 0.0 0.00 0.00 0.00 58 1015.1
20260506223602 64 270 0.0 0.0 0.00 0.00 0.00 59 1015.2
20260506222919 63 270 0.0 0.0 0.00 0.00 0.00 57 1015.3
20260506222237 64 270 0.0 0.0 0.00 0.00 0.00 57 1015.3
20260506221554 64 270 0.0 0.0 0.00 0.00 0.00 59 1015.3
20260506220913 63 270 0.0 0.0 0.00 0.00 0.00 59 1015.6
20260506220230 63 270 0.0 0.0 0.00 0.00 0.00 59 1015.6
20260506215548 63 270 0.0 0.0 0.00 0.00 0.00 57 1015.5
20260506214905 64 270 0.0 0.0 0.00 0.00 0.00 57 1015.5
20260506214224 64 270 0.0 0.0 0.00 0.00 0.00 57 1015.7
20260506213541 64 270 0.0 0.0 0.00 0.00 0.00 59 1015.8
20260506212859 64 270 0.0 0.0 0.00 0.00 0.00 59 1015.8
20260506212216 64 270 0.0 0.0 0.00 0.00 0.00 60 1015.8
20260506211535 64 270 0.0 0.0 0.00 0.00 0.00 59 1015.9
20260506210852 64 270 0.0 0.0 0.00 0.00 0.00 59 1016.0
20260506210210 63 270 0.0 0.0 0.00 0.00 0.00 60 1016.1
20260506205527 63 270 0.0 0.0 0.00 0.00 0.00 59 1016.1
20260506204846 63 270 0.0 0.0 0.00 0.00 0.00 59 1016.3
20260506204203 63 270 0.0 0.0 0.00 0.00 0.00 59 1016.3
20260506203521 64 270 0.0 0.0 0.00 0.00 0.00 60 1016.4
20260506202838 63 270 0.0 0.0 0.00 0.00 0.00 60 1016.5
20260506202157 63 270 0.0 0.0 0.00 0.00 0.00 60 1016.7
20260506201514 63 270 0.0 0.0 0.00 0.00 0.00 59 1016.5
20260506200832 62 270 0.0 0.0 0.00 0.00 0.00 61 1016.7
20260506200150 62 270 0.0 0.0 0.00 0.00 0.00 61 1016.9
20260506195508 61 270 0.0 0.0 0.00 0.00 0.00 61 1016.9
20260506194825 61 270 0.0 0.0 0.00 0.00 0.00 60 1017.1
20260506194143 60 270 0.0 0.0 0.00 0.00 0.00 62 1016.9
20260506193501 60 270 0.0 0.0 0.00 0.00 0.00 62 1017.0
20260506192819 60 270 0.0 0.0 0.00 0.00 0.00 61 1017.1
20260506192136 60 270 0.0 0.0 0.00 0.00 0.00 61 1016.9
20260506191454 60 270 0.0 0.0 0.00 0.00 0.00 65 1017.0
20260506190812 58 270 0.0 0.0 0.00 0.00 0.00 65 1017.2
20260506190130 58 270 0.0 0.0 0.00 0.00 0.00 63 1017.4
20260506185447 58 270 0.0 0.0 0.00 0.00 0.00 63 1017.3
20260506184805 58 270 0.0 0.0 0.00 0.00 0.00 66 1017.3
20260506184123 58 270 0.0 0.0 0.00 0.00 0.00 66 1017.5
20260506183441 58 270 0.0 0.0 0.00 0.00 0.00 65 1017.5
20260506182758 57 270 0.0 0.0 0.00 0.00 0.00 63 1017.4
20260506182116 57 270 0.0 0.0 0.00 0.00 0.00 66 1017.6
20260506180749 57 270 0.0 0.0 0.00 0.00 0.00 66 1017.7
20260506180106 57 270 0.0 0.0 0.00 0.00 0.00 66 1017.8
20260506175424 57 270 0.0 0.0 0.00 0.00 0.00 68 1018.2
20260506174742 57 270 0.0 0.0 0.00 0.00 0.00 68 1018.3
20260506174100 56 270 0.0 0.0 0.00 0.00 0.00 67 1018.1
20260506173417 56 270 0.0 0.0 0.00 0.00 0.00 68 1018.2
20260506172736 56 270 0.0 0.0 0.00 0.00 0.00 70 1018.1
20260506172053 55 270 0.0 0.0 0.00 0.00 0.00 70 1018.2
20260506171411 54 270 0.0 0.0 0.00 0.00 0.00 71 1018.1
20260506170728 54 270 0.0 0.0 0.00 0.00 0.00 69 1018.2
20260506170047 54 270 0.0 0.0 0.00 0.00 0.00 70 1018.2
20260506165404 54 270 0.0 0.0 0.00 0.00 0.00 72 1018.3
20260506164722 53 270 0.0 0.0 0.00 0.00 0.00 71 1018.4
20260506164039 53 270 0.0 0.0 0.00 0.00 0.00 71 1018.4
20260506163358 53 270 0.0 0.0 0.00 0.00 0.00 73 1018.4
20260506162715 52 270 0.0 0.0 0.00 0.00 0.00 72 1018.2
20260506162033 51 270 0.0 0.0 0.00 0.00 0.00 70 1018.3
20260506161350 51 270 0.0 0.0 0.00 0.00 0.00 73 1018.2
20260506160708 51 270 0.0 0.0 0.00 0.00 0.00 75 1018.2
20260506160026 50 270 0.0 0.0 0.00 0.00 0.00 76 1018.2
20260506155344 50 270 0.0 0.0 0.00 0.00 0.00 80 1018.2
20260506154701 50 270 0.0 0.0 0.00 0.00 0.00 81 1018.1
20260506154020 49 270 0.0 0.0 0.00 0.00 0.00 83 1018.3
20260506153337 49 270 0.0 0.0 0.00 0.00 0.00 83 1018.1
20260506152655 48 270 0.0 0.0 0.00 0.00 0.00 85 1018.5
20260506152012 48 270 0.0 0.0 0.00 0.00 0.00 85 1018.3
20260506151331 47 270 0.0 0.0 0.00 0.00 0.00 100 1018.5
20260506150648 47 270 0.0 0.0 0.00 0.00 0.00 2 1018.3
20260506150006 46 270 0.0 0.0 0.00 0.00 0.00 3 1018.3
20260506145323 46 270 0.0 0.0 0.00 0.00 0.00 3 1018.4
20260506144642 46 270 0.0 0.0 0.00 0.00 0.00 6 1018.4
20260506143959 45 270 0.0 0.0 0.00 0.00 0.00 7 1018.2
20260506143317 44 270 0.0 0.0 0.00 0.00 0.00 8 1018.4
20260506142634 44 270 0.0 0.0 0.00 0.00 0.00 8 1018.5
20260506141953 43 270 0.0 0.0 0.00 0.00 0.00 9 1018.4
20260506141310 43 270 0.0 0.0 0.00 0.00 0.00 10 1018.4
20260506140628 42 270 0.0 0.0 0.00 0.00 0.00 11 1018.2
20260506135945 41 270 0.0 0.0 0.00 0.00 0.00 12 1018.2
20260506135306 41 270 0.0 0.0 0.00 0.00 0.00 13 1018.3
20260506134621 40 270 0.0 0.0 0.00 0.00 0.00 13 1018.6
20260506133939 40 270 0.0 0.0 0.00 0.00 0.00 13 1018.5
20260506133256 39 270 0.0 0.0 0.00 0.00 0.00 13 1018.5
20260506132615 39 270 0.0 0.0 0.00 0.00 0.00 13 1018.4
20260506131932 39 270 0.0 0.0 0.00 0.00 0.00 14 1018.3
20260506131250 38 270 0.0 0.0 0.00 0.00 0.00 14 1018.3
20260506130607 37 270 0.0 0.0 0.00 0.00 0.00 15 1018.0
20260506125926 37 270 0.0 0.0 0.00 0.00 0.00 15 1018.0
20260506125243 37 270 0.0 0.0 0.00 0.00 0.00 16 1017.9
20260506124601 36 270 0.0 0.0 0.00 0.00 0.00 15 1017.8
20260506123918 36 270 0.0 0.0 0.00 0.00 0.00 16 1017.7
20260506123237 35 270 0.0 0.0 0.00 0.00 0.00 17 1017.6
20260506122554 35 270 0.0 0.0 0.00 0.00 0.00 17 1017.6
20260506121912 34 270 0.0 0.0 0.00 0.00 0.00 16 1017.4
20260506121229 34 270 0.0 0.0 0.00 0.00 0.00 16 1017.6
20260506120548 33 270 0.0 0.0 0.00 0.00 0.00 17 1017.5
20260506115905 33 270 0.0 0.0 0.00 0.00 0.00 16 1017.5
20260506115223 33 270 0.0 0.0 0.00 0.00 0.00 15 1017.3
20260506114540 32 270 0.0 0.0 0.00 0.00 0.00 15 1017.2
20260506113859 33 270 0.0 0.0 0.00 0.00 0.00 14 1016.9
20260506113216 33 270 0.0 0.0 0.00 0.00 0.00 14 1017.0
20260506112534 33 270 0.0 0.0 0.00 0.00 0.00 14 1017.1
20260506111851 33 270 0.0 0.0 0.00 0.00 0.00 13 1016.8
20260506111210 33 270 0.0 0.0 0.00 0.00 0.00 13 1016.8
20260506110527 33 270 0.0 0.0 0.00 0.00 0.00 13 1016.9
20260506105845 33 270 0.0 0.0 0.00 0.00 0.00 13 1016.6
20260506105202 34 270 0.0 0.0 0.00 0.00 0.00 12 1016.6
20260506104521 34 270 0.0 0.0 0.00 0.00 0.00 12 1016.7
20260506103838 34 270 0.0 0.0 0.00 0.00 0.00 12 1016.5
20260506103156 34 270 0.0 0.0 0.00 0.00 0.00 12 1016.5
20260506102513 34 270 0.0 0.0 0.00 0.00 0.00 12 1016.3
20260506101832 34 270 0.0 0.0 0.00 0.00 0.00 12 1016.3
20260506101149 34 270 0.0 0.0 0.00 0.00 0.00 12 1016.3
20260506100507 34 270 0.0 0.0 0.00 0.00 0.00 12 1016.2
20260506095824 34 270 0.0 0.0 0.00 0.00 0.00 12 1016.2
20260506095143 34 270 0.0 0.0 0.00 0.00 0.00 11 1016.2
20260506094500 34 270 0.0 0.0 0.00 0.00 0.00 11 1016.0
20260506093818 34 270 0.0 0.0 0.00 0.00 0.00 11 1016.0
20260506093135 34 270 0.0 0.0 0.00 0.00 0.00 10 1015.9
20260506092454 34 270 0.0 0.0 0.00 0.00 0.00 10 1016.0
20260506091811 34 270 0.0 0.0 0.00 0.00 0.00 11 1016.1
20260506091129 34 270 0.0 0.0 0.00 0.00 0.00 10 1016.1
20260506090446 34 270 0.0 0.0 0.00 0.00 0.00 9 1016.0
20260506085805 35 270 0.0 0.0 0.00 0.00 0.00 9 1016.0
20260506085122 35 270 0.0 0.0 0.00 0.00 0.00 9 1016.0
20260506084440 35 270 0.0 0.0 0.00 0.00 0.00 9 1015.9
20260506083757 35 270 0.0 0.0 0.00 0.00 0.00 9 1015.9
20260506083116 35 270 0.0 0.0 0.00 0.00 0.00 8 1015.9
20260506082433 35 270 0.0 0.0 0.00 0.00 0.00 8 1015.8
20260506081751 35 270 0.0 0.0 0.00 0.00 0.00 8 1015.8
20260506081108 35 270 0.0 0.0 0.00 0.00 0.00 8 1016.0
20260506080427 35 270 0.0 0.0 0.00 0.00 0.00 7 1016.0
20260506073055 37 270 0.0 0.0 0.00 0.00 0.00 5 1016.0
20260506072413 37 270 0.0 0.0 0.00 0.00 0.00 4 1016.1
20260506071730 37 270 0.0 0.0 0.00 0.00 0.00 3 1015.9
20260506071049 37 270 0.0 0.0 0.00 0.00 0.00 3 1015.8
20260506070406 37 270 0.0 0.0 0.00 0.00 0.00 3 1015.8
20260506062352 38 270 0.0 0.0 0.00 0.00 0.00 1 1015.6
20260506061711 38 270 0.0 0.0 0.00 0.00 0.00 100 1015.7
20260506061028 38 270 0.0 0.0 0.00 0.00 0.00 100 1015.8
20260506060346 39 270 0.0 0.0 0.00 0.00 0.00 100 1015.8
20260506051008 40 270 0.0 0.0 0.00 0.00 0.00 83 1015.3
20260506050325 40 270 0.0 0.0 0.00 0.00 0.00 83 1015.1
20260506045001 40 270 0.0 0.0 0.00 0.00 0.00 82 1015.3
20260506044319 41 270 0.0 0.0 0.00 0.00 0.00 82 1015.4
20260506043636 41 270 0.0 0.0 0.00 0.00 0.00 81 1015.2
20260506042955 41 270 0.0 0.0 0.00 0.00 0.00 80 1015.2
20260506042312 41 270 0.0 0.0 0.00 0.00 0.00 80 1015.2
20260506041630 42 270 0.0 0.0 0.00 0.00 0.00 80 1015.3
20260506040948 42 270 0.0 0.0 0.00 0.00 0.00 80 1015.1
20260506040306 42 270 0.0 0.0 0.00 0.00 0.00 80 1015.2
20260506035623 42 270 0.0 0.0 0.00 0.00 0.00 79 1015.3
20260506034941 42 270 0.0 0.0 0.00 0.00 0.00 79 1015.2
20260506034258 42 270 0.0 0.0 0.00 0.00 0.00 79 1015.3